Date String (YYYY-MM-DD hh:mm:ss) UTC,Instrument flags,Ambient pressure (hPa),Sample flow (lpm),Bypass flow (lpm),Sample temperature (°C),Ambient temperature (°C),ASC tube jacket temperature (°C),LED temperature (°C),Box temperature (°C),Sample RH (%),Span deviation,Mass concentration (μg/m³),Mass concentration (μg/m³),Mass concentration (μg/m³)
DateTimeUTC,F1_M11,P_M11,Q1_M11,Q2_M11,T1_M11,T2_M11,T3_M11,T4_M11,T5_M11,U1_M11,ZSPAN_M11,X0_M11,X2_M11,X1_M11
2023-01-08 13:00:00,,0827.7,5.00,0.00,22.5,21.1,00.0,31.3,24.2,12.0,0000.2,0018.21,0013.25,0013.00
2023-01-08 13:01:00,,0827.7,4.99,0.00,22.5,21.1,00.0,31.3,24.2,10.7,0000.3,0017.48,0012.61,0012.40
2023-01-08 13:02:00,,0827.7,4.99,0.00,22.4,21.1,00.0,31.3,24.2,09.7,0000.4,0016.51,0011.80,0011.62
2023-01-08 13:03:00,,0827.7,5.01,0.00,22.4,21.1,00.0,31.3,24.2,08.7,0000.3,0015.14,0010.88,0010.68
2023-01-08 13:04:00,,0827.6,5.00,0.00,22.4,21.1,00.0,31.3,24.2,08.2,0000.2,0013.82,0009.69,0009.55
2023-01-08 13:05:00,,0827.7,5.00,0.00,22.4,21.0,00.0,31.3,24.2,09.8,0000.3,0012.78,0008.73,0008.61
2023-01-08 13:06:00,,0827.7,4.99,0.00,22.4,21.0,00.0,31.3,24.1,10.6,0000.6,0012.10,0008.14,0008.02
2023-01-08 13:07:00,,0827.7,4.99,0.00,22.4,21.0,00.0,31.3,24.1,11.4,0000.6,0011.89,0007.94,0007.83
2023-01-08 13:08:00,,0827.7,4.99,0.00,22.4,20.8,00.0,31.3,24.0,11.8,0000.7,0011.51,0007.83,0007.71
2023-01-08 13:09:00,,0827.8,4.99,0.00,22.3,20.6,00.0,31.3,23.9,12.1,0000.7,0011.00,0007.82,0007.69
2023-01-08 13:10:00,,0827.7,5.00,0.00,22.3,20.6,00.0,31.3,23.9,12.4,0000.2,0010.61,0007.97,0007.84
2023-01-08 13:11:00,,0827.7,5.01,0.00,22.3,21.1,00.0,31.2,24.0,12.4,0000.2,0010.94,0008.25,0008.10
2023-01-08 13:12:00,,0827.7,4.99,0.00,22.4,22.2,00.0,31.2,24.3,12.4,0000.7,0011.77,0009.02,0008.85
2023-01-08 13:13:00,,0827.7,5.00,0.00,22.5,23.0,00.0,31.2,24.5,12.3,0000.6,0012.62,0009.80,0009.63
2023-01-08 13:14:00,,0827.7,4.99,0.00,22.6,22.9,00.0,31.3,24.6,11.9,0000.9,0013.48,0010.57,0010.36
2023-01-08 13:15:00,,0827.7,4.99,0.00,22.6,22.5,00.0,31.3,24.5,11.6,0001.0,0014.25,0011.22,0011.02
2023-01-08 13:16:00,,0827.7,5.00,0.00,22.6,22.1,00.0,31.3,24.5,11.4,0000.9,0014.59,0011.55,0011.37
2023-01-08 13:17:00,,0827.6,5.00,0.00,22.6,21.8,00.0,31.4,24.4,11.2,0000.7,0014.70,0011.63,0011.46
2023-01-08 13:18:00,,0827.7,5.00,0.00,22.6,21.6,00.0,31.4,24.4,10.8,0000.8,0014.33,0011.30,0011.17
2023-01-08 13:19:00,,0827.7,5.01,0.00,22.6,21.5,00.0,31.4,24.4,10.6,0001.1,0013.84,0010.86,0010.74
2023-01-08 13:20:00,,0827.8,5.00,0.00,22.6,21.3,00.0,31.4,24.3,10.2,0001.2,0013.17,0010.26,0010.16
2023-01-08 13:21:00,,0827.8,5.00,0.00,22.6,21.1,00.0,31.4,24.3,10.2,0001.4,0012.45,0009.57,0009.46
2023-01-08 13:22:00,,0827.7,5.01,0.00,22.5,20.8,00.0,31.4,24.1,10.3,0001.6,0011.73,0008.94,0008.85
2023-01-08 13:23:00,,0827.7,4.99,0.00,22.5,20.7,00.0,31.4,24.1,10.6,0001.5,0011.13,0008.33,0008.23
2023-01-08 13:24:00,,0827.7,5.01,0.00,22.4,20.7,00.0,31.4,24.1,10.8,0001.5,0010.69,0007.89,0007.78
2023-01-08 13:25:00,,0827.6,4.99,0.00,22.4,20.8,00.0,31.3,24.1,10.5,0001.3,0010.20,0007.47,0007.38
2023-01-08 13:26:00,,0827.5,5.02,0.00,22.4,20.8,00.0,31.3,24.0,09.5,0001.1,0009.68,0007.04,0006.97
2023-01-08 13:27:00,,0827.6,5.00,0.00,22.4,20.8,00.0,31.3,24.0,09.5,0001.7,0009.16,0006.57,0006.49
2023-01-08 13:28:00,,0827.6,5.00,0.00,22.4,20.8,00.0,31.3,24.0,10.1,0002.1,0008.88,0006.33,0006.25
2023-01-08 13:29:00,,0827.5,5.00,0.00,22.3,20.8,00.0,31.3,24.0,10.0,0002.3,0008.77,0006.21,0006.12
2023-01-08 13:30:00,,0827.5,5.00,0.00,22.3,20.8,00.0,31.3,24.0,09.5,0002.1,0008.57,0006.01,0005.91
2023-01-08 13:31:00,,0827.5,4.99,0.00,22.3,20.8,00.0,31.3,24.0,09.5,0002.2,0008.46,0005.90,0005.79
2023-01-08 13:32:00,,0827.4,5.00,0.00,22.3,20.7,00.0,31.2,24.0,09.0,0002.7,0008.19,0005.67,0005.58
2023-01-08 13:33:00,,0827.5,5.01,0.00,22.3,20.9,00.0,31.2,24.0,08.5,0002.9,0007.84,0005.35,0005.27
2023-01-08 13:34:00,,0827.5,5.01,0.00,22.4,21.9,00.0,31.2,24.2,08.7,0002.9,0007.28,0004.96,0004.89
2023-01-08 13:35:00,,0827.5,5.00,0.00,22.5,22.8,00.0,31.2,24.5,08.6,0003.3,0006.42,0004.48,0004.42
2023-01-08 13:36:00,,0827.5,5.00,0.00,22.6,23.0,00.0,31.2,24.6,08.6,0003.5,0005.75,0004.12,0004.05
2023-01-08 13:37:00,,0827.5,4.99,0.00,22.6,22.6,00.0,31.3,24.6,08.9,0003.8,0005.48,0003.98,0003.90
2023-01-08 13:38:00,,0827.5,4.99,0.00,22.6,22.2,00.0,31.3,24.5,08.9,0001.4,0005.41,0003.92,0003.83
2023-01-08 13:39:00,,0827.5,5.00,0.00,22.6,21.9,00.0,31.4,24.4,08.8,0000.0,0004.93,0003.68,0003.59
2023-01-08 13:40:00,,0827.5,5.01,0.00,22.6,21.7,00.0,31.4,24.4,08.2,0000.0,0004.30,0003.37,0003.29
2023-01-08 13:41:00,,0827.4,5.01,0.00,22.6,21.5,00.0,31.4,24.4,07.9,0000.0,0003.84,0003.17,0003.09
2023-01-08 13:42:00,,0827.4,5.01,0.00,22.6,21.4,00.0,31.4,24.4,07.9,0000.0,0003.44,0002.90,0002.78
2023-01-08 13:43:00,,0827.4,5.00,0.00,22.6,21.3,00.0,31.4,24.3,07.7,0000.0,0003.15,0002.65,0002.54
2023-01-08 13:44:00,,0827.4,5.00,0.00,22.6,21.3,00.0,31.4,24.3,07.6,0000.0,0003.00,0002.52,0002.41
2023-01-08 13:45:00,,0827.4,5.00,0.00,22.6,21.3,00.0,31.4,24.3,07.6,0000.0,0002.90,0002.42,0002.31
2023-01-08 13:46:00,,0827.5,5.00,0.00,22.6,21.2,00.0,31.4,24.3,08.6,0000.0,0002.83,0002.43,0002.33
2023-01-08 13:47:00,,0827.5,5.00,0.00,22.5,21.1,00.0,31.4,24.2,09.5,0000.0,0002.90,0002.56,0002.46
2023-01-08 13:48:00,,0827.5,5.00,0.00,22.5,21.1,00.0,31.4,24.2,10.3,0000.0,0003.19,0002.81,0002.72
2023-01-08 13:49:00,,0827.5,5.01,0.00,22.5,21.1,00.0,31.4,24.2,10.3,0000.0,0003.61,0002.95,0002.88
2023-01-08 13:50:00,,0827.5,5.00,0.00,22.5,21.0,00.0,31.4,24.1,10.3,0000.0,0004.91,0003.12,0003.06
2023-01-08 13:51:00,,0827.5,5.01,0.00,22.5,21.0,00.0,31.3,24.1,10.3,0000.0,0005.20,0003.29,0003.25
2023-01-08 13:52:00,,0827.5,5.00,0.00,22.4,20.9,00.0,31.3,24.1,10.6,0000.0,0006.16,0003.60,0003.55
2023-01-08 13:53:00,,0827.5,5.00,0.00,22.4,20.8,00.0,31.3,24.0,10.9,0001.1,0007.64,0004.03,0003.97
2023-01-08 13:54:00,,0827.4,4.99,0.00,22.4,20.7,00.0,31.3,24.0,11.1,0002.1,0008.18,0004.54,0004.48
2023-01-08 13:55:00,,0827.5,4.99,0.00,22.3,20.6,00.0,31.3,23.9,11.3,0001.2,0008.88,0005.15,0005.05
2023-01-08 13:56:00,,0827.6,5.00,0.00,22.3,20.6,00.0,31.3,23.9,11.5,0000.7,0009.57,0005.77,0005.68
2023-01-08 13:57:00,,0827.5,5.01,0.00,22.3,20.6,00.0,31.3,23.9,11.6,0000.5,0010.25,0006.39,0006.28
2023-01-08 13:58:00,,0827.6,5.00,0.00,22.3,20.7,00.0,31.2,23.9,11.5,0000.8,0010.76,0006.86,0006.75
2023-01-08 13:59:00,,0827.7,4.99,0.00,22.2,20.7,00.0,31.2,23.9,11.5,0001.2,0011.10,0007.20,0007.09
